Slayton, MN

10:35 PM CDT on March 27, 2017 (GMT -0500)
Slayton

Weather History for KDVP - March, 2013

Change the Weather History Date:

Thursday, March 14, 2013

  Actual Average (KOTG) Record (KOTG)
Temperature  
Mean Temperature 36 °F -  
Max Temperature 43 °F 33 °F 64 °F (2012)
Min Temperature 28 °F 19 °F -10 °F (1975)
Degree Days  
Heating Degree Days 30    
Moisture  
Dew Point 30 °F    
Average Humidity 82    
Maximum Humidity 98    
Minimum Humidity 70    
Precipitation  
Precipitation 0.00 in - - ()
Sea Level Pressure  
Sea Level Pressure 30.05 in    
Wind  
Wind Speed 10 mph (WSW)    
Max Wind Speed 18 mph    
Max Gust Speed 28 mph    
Visibility 10 miles    
Events      
Averages and records for this station are not official NWS values.
T = Trace of Precipitation, MM = Missing Value Source: NWS Daily Summary

Daily Weather History Graph

Daily Weather History Graph

Search for Another Location

Airport or City:

Trip Planner

Search our weather history database for the weather conditions in past years. The results will help you decide how hot, cold, wet, or windy it might be!

Date:

Astronomy

Mar. 14, 2013 Rise Set
Actual Time 7:36 AM CDT 7:28 PM CDT
Civil Twilight 7:07 AM CDT 7:57 PM CDT
Nautical Twilight 6:34 AM CDT 8:30 PM CDT
Astronomical Twilight 6:00 AM CDT 9:04 PM CDT
Moon 8:43 AM CDT (3/14) 10:54 PM CDT (3/14)
Length of Visible Light 12h 49m
Length of Day
11h 51m
Waxing Crescent, 9% of the Moon is Illuminated
Mar 14
Waxing Crescent
Mar 19
First Quarter
Mar 27
Full
Apr 2
Last Quarter
Apr 10
New

Hourly Weather History & Observations

Time (CDT) Temp. Windchill Dew Point Humidity Pressure Visibility Wind Dir Wind Speed Gust Speed Precip Events Conditions
12:34 AM 29.5 °F 18.4 °F 23.4 °F 78% 30.13 in 10.0 mi South 15.0 mph 18.4 mph N/A   Overcast
12:55 AM 29.7 °F 17.8 °F 23.9 °F 79% 30.10 in 10.0 mi South 17.3 mph 21.9 mph N/A   Mostly Cloudy
1:15 AM 30.0 °F 17.9 °F 23.7 °F 77% 30.09 in 10.0 mi South 18.4 mph 23.0 mph N/A   Scattered Clouds
1:35 AM 30.4 °F 18.4 °F 21.7 °F 70% 30.08 in 10.0 mi South 18.4 mph 27.6 mph N/A   Scattered Clouds
1:55 AM 30.0 °F 18.7 °F 21.4 °F 70% 30.08 in 10.0 mi South 16.1 mph 24.2 mph N/A   Mostly Cloudy
2:15 AM 30.0 °F 19.1 °F 21.9 °F 72% 30.07 in 10.0 mi South 15.0 mph - N/A   Overcast
2:34 AM 30.2 °F 20.2 °F 22.3 °F 72% 30.07 in 10.0 mi South 12.7 mph 20.7 mph N/A   Overcast
2:55 AM 30.2 °F 21.9 °F 22.5 °F 73% 30.08 in 10.0 mi South 9.2 mph 16.1 mph N/A   Mostly Cloudy
3:15 AM 30.2 °F 21.3 °F 24.1 °F 78% 30.06 in 10.0 mi South 10.4 mph - N/A   Overcast
3:35 AM 30.4 °F 21.0 °F 23.9 °F 77% 30.04 in 10.0 mi South 11.5 mph 16.1 mph N/A   Overcast
3:55 AM 30.6 °F 19.8 °F 24.3 °F 77% 30.02 in 10.0 mi South 15.0 mph - N/A   Overcast
4:15 AM 30.2 °F 23.4 °F 24.1 °F 78% 30.02 in 10.0 mi South 6.9 mph - N/A   Mostly Cloudy
4:35 AM 30.2 °F 23.4 °F 24.4 °F 79% 30.02 in 10.0 mi SSE 6.9 mph - N/A   Mostly Cloudy
4:55 AM 30.6 °F 24.7 °F 24.4 °F 78% 30.00 in 10.0 mi South 5.8 mph - N/A   Mostly Cloudy
5:15 AM 30.9 °F 23.5 °F 25.0 °F 79% 30.00 in 10.0 mi South 8.1 mph - N/A   Mostly Cloudy
5:35 AM 30.7 °F 26.0 °F 25.3 °F 80% 29.99 in 10.0 mi SSE 4.6 mph - N/A   Overcast
5:54 AM 30.2 °F 24.3 °F 25.2 °F 82% 29.99 in 10.0 mi SSW 5.8 mph - N/A   Mostly Cloudy
6:15 AM 30.9 °F 24.3 °F 25.5 °F 80% 29.99 in 10.0 mi SSW 6.9 mph - N/A   Mostly Cloudy
6:35 AM 30.9 °F 24.3 °F 25.5 °F 80% 30.03 in 10.0 mi ENE 6.9 mph - N/A   Scattered Clouds
6:55 AM 30.0 °F 25.2 °F 25.5 °F 83% 30.03 in 10.0 mi ESE 4.6 mph - N/A   Clear
7:15 AM 29.5 °F - 25.3 °F 85% 30.03 in 10.0 mi Calm Calm - N/A   Clear
7:35 AM 29.3 °F 23.2 °F 25.5 °F 86% 30.02 in 10.0 mi SSW 5.8 mph - N/A   Clear
7:55 AM 28.0 °F 20.8 °F 25.0 °F 88% 30.02 in 10.0 mi SSW 6.9 mph - N/A   Clear
8:14 AM 28.6 °F 22.4 °F 25.3 °F 88% 30.03 in 10.0 mi SSW 5.8 mph - N/A   Clear
8:55 AM 31.3 °F 25.6 °F 26.8 °F 83% 30.04 in 10.0 mi WSW 5.8 mph - N/A   Clear
9:15 AM 32.9 °F 26.7 °F 27.5 °F 81% 30.05 in 10.0 mi West 6.9 mph - N/A   Clear
9:35 AM 33.6 °F 26.2 °F 28.4 °F 81% 30.06 in 10.0 mi WNW 9.2 mph - N/A   Clear
9:55 AM 35.1 °F 27.4 °F 30.0 °F 82% 30.05 in 10.0 mi WNW 10.4 mph - N/A   Clear
10:15 AM 36.3 °F 30.1 °F 31.1 °F 81% 30.06 in 10.0 mi WNW 8.1 mph - N/A   Clear
10:35 AM 37.6 °F 31.0 °F 31.5 °F 79% 30.05 in 10.0 mi NNW 9.2 mph - N/A   Clear
10:55 AM 37.8 °F 30.2 °F 31.3 °F 77% 30.05 in 10.0 mi NNW 11.5 mph - N/A   Clear
11:15 AM 37.6 °F 30.5 °F 31.1 °F 77% 30.05 in 10.0 mi NNW 10.4 mph - N/A   Clear
11:34 AM 37.8 °F 31.8 °F 31.8 °F 79% 30.05 in 10.0 mi NNW 8.1 mph - N/A   Clear
11:55 AM 37.9 °F 30.9 °F 32.0 °F 79% 30.07 in 10.0 mi NNW 10.4 mph - N/A   Clear
12:15 PM 38.3 °F 32.5 °F 31.6 °F 77% 30.08 in 10.0 mi NW 8.1 mph - N/A   Clear
12:35 PM 39.0 °F 32.8 °F 32.2 °F 76% 30.08 in 10.0 mi NW 9.2 mph - N/A   Clear
12:55 PM 39.6 °F 33.0 °F 32.4 °F 75% 30.10 in 10.0 mi NW 10.4 mph - N/A   Clear
1:15 PM 40.1 °F 34.7 °F 32.5 °F 74% 30.10 in 10.0 mi NW 8.1 mph - N/A   Clear
1:35 PM 40.1 °F 34.1 °F 33.4 °F 77% 30.10 in 10.0 mi WNW 9.2 mph - N/A   Clear
1:55 PM 40.6 °F 36.0 °F 33.3 °F 75% 30.10 in 10.0 mi NW 6.9 mph - N/A   Clear
2:15 PM 41.0 °F 38.0 °F 33.4 °F 74% 30.08 in 10.0 mi NNW 4.6 mph - N/A   Clear
2:35 PM 40.8 °F 36.9 °F 33.8 °F 76% 30.08 in 10.0 mi NNW 5.8 mph - N/A   Clear
2:54 PM 41.9 °F 36.9 °F 34.3 °F 75% 30.08 in 10.0 mi WNW 8.1 mph - N/A   Clear
3:15 PM 42.1 °F 37.1 °F 33.8 °F 72% 30.08 in 10.0 mi NNW 8.1 mph - N/A   Clear
3:35 PM 41.5 °F 37.8 °F 34.3 °F 76% 30.08 in 10.0 mi NNW 5.8 mph - N/A   Clear
3:55 PM 41.9 °F 38.2 °F 34.5 °F 75% 30.08 in 10.0 mi North 5.8 mph - N/A   Clear
4:15 PM 41.7 °F - 35.8 °F 79% 30.07 in 10.0 mi Calm Calm - N/A   Clear
4:55 PM 42.3 °F 39.4 °F 36.0 °F 78% 30.08 in 10.0 mi West 4.6 mph - N/A   Clear
5:15 PM 43.2 °F 39.0 °F 37.0 °F 79% 30.09 in 10.0 mi West 6.9 mph - N/A   Clear
5:35 PM 43.2 °F 40.5 °F 37.0 °F 79% 30.10 in 10.0 mi WNW 4.6 mph - N/A   Clear
5:55 PM 43.2 °F 40.5 °F 37.0 °F 79% 30.09 in 10.0 mi West 4.6 mph - N/A   Clear
6:14 PM 42.6 °F - 37.8 °F 83% 30.08 in 10.0 mi Calm Calm - N/A   Clear
6:35 PM 42.1 °F 40.2 °F 37.4 °F 83% 30.08 in 10.0 mi West 3.5 mph - N/A   Clear
6:55 PM 41.4 °F - 36.7 °F 83% 30.07 in 10.0 mi Calm Calm - N/A   Clear
7:15 PM 39.9 °F - 36.5 °F 88% 30.07 in 10.0 mi Calm Calm - N/A   Clear
7:35 PM 39.2 °F 37.0 °F 36.3 °F 89% 30.07 in 10.0 mi SW 3.5 mph - N/A   Clear
7:55 PM 35.8 °F 31.9 °F 34.0 °F 93% 30.07 in 7.0 mi WSW 4.6 mph - N/A   Clear
8:15 PM 34.0 °F 27.2 °F 33.1 °F 96% 30.06 in 7.0 mi SW 8.1 mph - N/A   Clear
8:35 PM 34.0 °F 28.8 °F 33.1 °F 96% 30.06 in 7.0 mi WSW 5.8 mph - N/A   Clear
8:55 PM 34.3 °F 31.4 °F 33.8 °F 98% 30.05 in 10.0 mi WSW 3.5 mph - N/A   Clear
9:15 PM 35.6 °F 31.7 °F 33.8 °F 93% 30.04 in 10.0 mi WSW 4.6 mph - N/A   Clear
9:34 PM 36.1 °F - 34.0 °F 92% 30.04 in 10.0 mi Calm Calm - N/A   Clear
9:55 PM 35.6 °F - 33.8 °F 93% 30.03 in 10.0 mi Calm Calm - N/A   Clear
10:15 PM 37.8 °F 32.5 °F 34.9 °F 89% 30.03 in 10.0 mi WSW 6.9 mph - N/A   Clear
10:35 PM 36.7 °F 30.5 °F 34.3 °F 91% 30.03 in 10.0 mi WSW 8.1 mph - N/A   Clear
10:55 PM 36.0 °F 29.6 °F 34.0 °F 93% 30.02 in 10.0 mi SW 8.1 mph - N/A   Clear
11:15 PM 34.9 °F 32.0 °F 33.8 °F 96% 30.00 in 7.0 mi SW 3.5 mph - N/A   Clear
11:35 PM 35.1 °F 31.0 °F 34.0 °F 96% 30.00 in 10.0 mi WSW 4.6 mph - N/A   Clear
11:55 PM 35.2 °F 31.2 °F 34.3 °F 97% 29.99 in 10.0 mi SSW 4.6 mph - N/A   Clear